Theta_e
361 360 361 358 355 358 357 355 353 351 349 349 348 348 348 348 350 353 358 361 362 362 361 361 362 363 360 358 356 357 358 358 359 358 357 357 356 357 358 358 359 360 361 361 359 360 360 357 358 358 358 360 361 362 362 361 361 362 361 360 363 362 359
362 360 360 359 358 359 357 358 357 354 352 349 348 348 348 349 351 354 357 361 363 363 361 361 363 363 361 359 356 357 358 358 358 359 358 358 356 355 356 356 357 358 359 359 358 359 360 359 359 359 359 360 362 363 362 361 360 362 360 357 360 362 361
362 361 359 359 359 358 357 357 357 355 354 352 351 349 348 348 350 353 358 361 363 364 363 363 363 363 361 360 358 357 357 357 358 358 358 358 355 353 353 353 354 357 358 359 359 359 359 358 359 360 360 360 360 362 363 362 361 362 361 358 359 361 361
357 358 358 358 358 358 358 359 358 358 357 356 354 352 352 351 351 352 358 361 363 364 364 363 364 364 362 361 359 358 357 357 357 358 357 357 355 353 353 354 352 355 358 358 359 359 358 358 359 359 361 359 359 360 362 363 361 362 363 361 360 362 361
352 354 355 357 357 357 359 359 360 360 360 358 356 354 355 354 352 352 354 360 363 365 365 364 364 364 363 361 360 359 359 358 357 357 356 355 355 353 352 354 353 353 355 356 358 358 356 357 358 359 360 360 360 360 361 362 361 362 362 362 362 362 362
349 351 352 355 356 355 357 359 359 359 359 358 355 355 355 354 354 355 354 359 363 364 364 364 363 363 363 362 359 359 360 360 357 356 355 354 354 353 351 352 353 352 352 354 356 357 357 357 358 359 359 359 359 359 360 361 362 363 363 363 363 362 360
347 350 351 352 353 353 356 358 358 359 359 357 355 354 353 353 354 354 354 357 361 362 362 363 362 360 362 362 359 358 359 360 359 357 356 354 353 353 352 351 352 352 351 352 354 355 356 356 357 358 359 358 357 356 357 359 360 361 362 363 363 362 360
344 347 348 350 350 349 353 357 358 359 359 357 356 356 355 355 354 354 354 354 359 361 361 360 359 357 359 361 360 358 359 359 359 357 355 355 353 352 352 351 352 351 350 351 351 353 355 357 356 356 357 357 355 354 354 355 357 358 359 360 361 362 362
341 343 344 346 346 347 351 353 355 359 359 359 359 358 358 359 357 356 356 355 357 360 358 358 358 355 356 359 359 358 359 360 360 359 355 353 352 351 352 352 351 351 350 350 350 351 354 356 356 355 355 356 355 353 353 353 355 356 356 358 360 360 360
338 341 342 343 346 347 350 350 351 354 355 358 359 357 358 358 357 356 356 357 357 358 358 358 359 357 355 357 357 357 357 360 361 359 356 352 351 351 351 351 352 351 350 349 349 349 352 354 355 355 355 355 355 354 352 353 354 355 356 357 357 359 359
336 339 340 342 344 345 346 347 348 349 350 352 355 355 354 354 355 356 357 358 356 356 356 357 356 357 354 354 356 355 356 357 358 358 357 353 349 349 349 349 351 352 352 349 348 349 350 351 353 354 353 354 355 354 353 353 354 356 357 357 355 356 358
336 337 338 339 340 341 343 345 345 346 346 348 350 352 353 353 355 357 357 358 358 355 355 354 353 354 353 353 355 355 355 354 355 355 355 354 350 346 347 348 348 351 353 351 348 349 349 350 351 352 353 354 354 355 354 353 355 355 357 357 356 356 357
335 336 336 336 337 338 341 342 344 345 345 346 348 349 351 353 353 355 355 357 358 357 356 354 353 353 352 352 353 355 355 353 353 354 353 353 352 346 345 345 346 349 351 351 349 348 348 349 349 350 352 353 355 355 355 354 355 356 357 357 356 355 355
335 335 335 334 335 336 338 339 342 344 344 346 348 347 348 349 350 352 354 355 357 357 357 357 356 354 355 355 353 354 355 354 353 354 353 352 351 348 345 344 344 345 348 350 350 348 346 347 349 350 351 353 355 356 356 355 355 356 356 356 356 355 354
335 333 333 333 334 335 336 337 339 341 340 343 344 344 346 347 348 349 351 352 355 354 354 356 356 354 354 355 354 353 353 353 354 354 353 354 353 350 347 345 344 344 344 347 348 348 347 345 347 349 351 351 353 356 357 356 356 357 356 356 356 356 354
334 333 333 332 333 334 335 335 338 338 338 339 340 341 343 345 346 347 348 350 352 351 350 353 356 355 352 351 351 352 352 353 353 354 354 353 353 354 352 347 345 343 343 345 346 346 347 345 345 347 350 351 353 355 357 356 356 357 356 355 356 355 355
333 333 333 332 333 334 333 334 336 337 336 336 338 338 339 342 344 345 345 347 348 349 349 352 356 356 353 352 353 353 354 354 353 353 354 354 353 353 354 354 351 347 344 343 344 345 346 346 344 344 346 350 352 354 355 355 354 356 356 355 354 354 355
332 332 332 332 333 333 333 333 334 335 336 334 335 336 336 338 342 343 343 344 346 346 348 351 354 354 354 356 355 353 353 354 354 354 354 354 355 355 355 356 357 355 352 347 344 343 344 345 346 343 344 346 348 351 354 354 353 353 354 355 354 354 355
331 331 331 331 331 331 332 333 333 335 335 334 333 334 335 335 338 341 342 343 344 345 346 349 350 350 350 353 354 353 353 353 354 354 355 354 354 355 356 357 357 359 359 356 349 345 345 346 346 345 343 344 345 347 350 353 353 352 351 352 353 352 353
330 330 330 329 329 330 331 332 332 333 334 334 333 334 334 334 335 339 341 341 342 343 344 345 346 346 346 348 350 350 351 352 353 354 355 355 355 357 358 359 358 359 361 360 355 350 348 347 347 347 346 345 344 344 346 349 352 351 350 350 350 350 350
327 328 328 328 328 330 330 329 330 331 332 334 333 333 334 335 334 335 338 339 340 341 342 342 343 343 343 345 346 345 345 347 349 351 353 354 355 356 356 356 357 357 356 355 355 354 354 353 351 350 350 350 348 345 345 345 345 349 350 349 348 347 348
326 325 326 326 326 328 329 327 327 329 330 331 332 331 332 335 335 335 335 336 337 339 340 340 340 340 341 342 342 342 342 342 345 347 350 352 353 353 352 351 353 355 355 354 354 353 351 353 354 355 354 354 353 351 350 346 343 344 345 348 348 346 346
324 323 324 325 324 326 326 324 325 327 328 329 330 329 330 333 335 336 336 335 335 337 339 338 339 339 339 339 340 341 341 341 343 345 347 349 351 352 352 351 352 354 356 356 356 356 352 351 353 355 357 356 356 356 355 354 350 347 345 345 347 346 346
323 322 322 322 322 324 324 324 324 326 325 326 328 327 328 330 333 334 336 335 335 337 338 337 337 338 339 339 339 339 339 341 343 344 345 347 348 351 352 352 352 354 355 355 355 355 354 353 352 353 355 357 358 358 358 357 356 354 350 348 346 346 346
322 321 321 320 322 322 321 322 323 324 324 324 325 325 325 328 331 332 333 334 334 336 337 336 336 336 337 338 338 338 339 340 342 344 344 344 345 348 351 352 352 353 354 355 355 354 354 354 353 352 353 355 357 358 358 359 359 358 356 354 351 349 346
321 321 321 320 321 321 320 321 323 323 324 324 325 325 324 326 329 329 331 332 333 335 336 336 335 335 335 337 338 338 338 338 340 342 343 343 345 347 350 351 351 352 353 355 354 354 353 354 354 353 353 353 355 356 357 357 358 359 358 357 356 353 349
320 321 321 321 321 321 321 322 322 323 323 324 325 325 325 326 326 326 328 330 332 333 334 334 335 335 335 335 336 337 338 338 339 341 342 343 344 347 350 351 352 352 353 353 354 354 354 354 353 354 355 355 356 357 356 357 357 356 357 358 358 357 353
321 321 321 320 321 321 322 322 322 322 323 324 323 324 325 326 326 326 327 328 330 331 332 333 334 334 334 335 335 336 337 338 339 340 341 343 344 347 349 351 352 353 352 353 354 355 354 354 353 354 355 356 357 357 356 354 354 353 354 355 356 355 355
321 320 320 320 320 321 321 322 322 323 323 322 323 324 326 326 327 327 327 327 328 329 331 333 333 333 334 334 334 334 335 337 338 338 340 342 344 345 346 347 349 351 353 353 354 355 356 356 355 355 356 357 358 358 357 355 355 355 355 354 353 353 354
320 319 320 319 320 321 321 321 321 321 322 322 323 323 324 325 327 327 328 327 327 327 330 332 332 331 333 334 334 334 334 334 335 336 339 342 342 342 344 345 346 348 352 354 354 355 356 357 357 357 358 358 358 357 357 356 356 355 354 355 355 354 354
318 319 319 319 319 320 319 320 320 320 321 321 322 323 323 324 325 326 327 328 327 327 328 329 329 331 332 332 332 333 333 333 333 335 339 340 339 340 342 344 345 346 349 351 353 354 355 356 356 356 357 357 358 357 356 356 356 355 355 354 354 355 355
318 318 318 318 319 318 318 319 319 320 320 320 321 321 322 322 323 324 325 326 327 327 326 326 327 329 330 331 331 331 332 332 332 334 337 338 338 339 341 343 344 345 347 349 350 351 352 354 354 355 356 356 357 357 356 356 356 355 356 355 355 355 356
317 317 317 317 317 317 318 318 319 319 320 320 320 320 321 321 322 323 323 324 325 326 326 326 326 328 329 330 330 330 330 332 333 334 335 337 337 337 338 340 342 343 344 345 344 344 347 350 351 353 355 355 356 355 355 355 355 355 355 355 355 356 356
316 317 316 316 317 317 317 318 318 319 319 319 319 319 320 321 321 322 322 323 324 325 326 327 326 327 328 329 329 329 330 331 332 333 335 335 335 336 336 339 340 340 340 340 340 341 343 343 344 345 348 352 354 355 355 355 354 354 354 354 356 356 357
316 316 316 316 316 316 316 317 317 318 318 319 318 319 319 320 320 320 321 322 323 324 325 326 326 327 328 328 328 329 329 330 331 333 333 333 333 335 336 337 337 336 336 336 337 337 338 339 339 338 339 341 345 349 352 354 354 355 355 356 356 355 355
315 315 315 315 315 315 316 316 316 317 317 317 318 318 318 319 319 320 320 321 322 322 324 325 326 326 327 328 328 328 328 329 330 330 330 331 332 334 335 335 335 334 334 334 334 334 335 336 337 337 336 337 337 340 343 347 350 353 353 352 352 352 353
314 314 315 315 314 315 315 315 315 316 316 317 317 317 318 318 318 319 319 320 321 321 322 324 325 326 327 327 327 327 327 328 328 329 330 331 332 333 334 334 334 333 333 333 333 333 334 334 335 337 338 337 337 338 339 340 343 345 346 347 348 349 351
313 313 314 313 314 314 314 314 315 315 315 316 316 316 317 317 318 318 319 319 320 321 321 322 324 325 326 326 326 326 326 326 327 328 329 330 331 331 332 333 333 332 332 332 332 332 332 333 335 337 337 339 340 341 341 342 342 343 344 346 347 349 350
Wind_Speed
5 3 3 2 1 1 8 13 11 15 18 20 20 21 24 23 24 26 25 26 26 24 24 25 24 25 25 24 23 22 21 20 19 18 17 16 15 15 15 13 13 13 13 13 13 13 14 14 14 13 12 12 11 11 10 10 9 9 9 9 8 7 8
5 4 3 2 1 2 10 12 7 10 13 19 22 22 22 23 24 25 26 26 26 25 25 25 24 24 24 24 23 23 23 21 21 19 18 17 17 16 16 15 14 13 13 13 13 13 13 14 15 14 14 13 11 11 10 10 10 9 9 9 8 8 8
4 3 3 2 4 6 8 8 7 9 12 15 19 20 21 23 24 25 27 27 26 25 25 25 25 24 24 24 23 24 24 22 22 21 19 18 18 17 17 16 16 15 13 12 13 14 13 14 15 14 14 13 12 12 11 10 10 10 9 9 9 8 8
5 4 6 5 5 5 5 5 5 7 8 9 12 14 15 18 23 25 25 26 26 25 25 25 24 24 24 24 24 24 24 23 22 22 20 19 20 19 18 18 17 16 15 14 13 14 14 15 15 14 14 13 13 12 12 11 11 11 10 9 9 8 8
8 5 7 6 4 1 1 2 2 4 3 2 6 12 11 11 17 23 25 24 24 25 25 24 23 23 23 24 22 22 24 24 23 22 21 20 21 21 19 19 18 17 17 16 15 14 15 16 16 15 15 14 13 13 13 12 12 11 11 10 9 9 9
9 7 7 6 4 5 5 1 2 4 1 9 5 5 6 7 14 15 17 21 24 24 23 24 24 22 23 23 22 21 23 24 24 23 22 21 22 22 21 20 20 19 18 18 17 16 15 16 16 16 15 15 14 13 13 13 12 12 12 11 10 10 10
9 8 8 9 9 8 9 7 2 3 3 8 8 7 11 10 10 9 9 13 21 22 21 22 23 22 22 22 21 22 23 24 24 23 22 21 22 22 22 22 21 20 20 20 19 19 17 17 17 17 16 15 15 14 14 14 13 13 13 12 12 11 10
11 10 9 10 10 10 11 11 9 8 6 3 4 7 8 8 8 11 14 18 17 18 18 20 21 21 22 22 22 22 22 22 23 23 22 21 22 22 22 23 23 22 21 21 21 21 20 19 18 17 17 16 16 15 15 15 15 14 13 13 13 12 11
11 10 10 10 10 10 12 14 14 13 10 6 4 4 3 2 2 6 10 15 15 14 15 15 17 18 18 18 20 22 23 22 22 23 23 22 23 23 22 22 23 23 23 22 22 22 22 22 21 20 19 17 17 17 16 16 16 15 15 14 14 14 13
10 10 10 10 9 10 12 15 16 16 15 13 10 9 10 11 9 6 3 4 6 7 9 10 13 14 14 13 14 16 20 23 23 22 24 24 24 24 24 23 23 24 24 22 21 22 23 23 22 22 22 20 19 19 18 17 17 17 16 16 15 15 15
9 10 10 10 10 11 13 14 15 16 17 15 14 13 15 17 15 11 9 6 4 3 4 7 10 12 15 16 15 15 17 20 23 24 24 25 25 25 25 24 24 24 24 24 23 23 23 24 23 24 25 23 21 21 21 20 19 18 17 17 16 16 16
9 9 10 12 12 12 12 13 14 16 17 17 16 15 14 14 14 11 9 7 5 5 6 6 6 8 13 16 16 18 20 21 22 24 26 26 25 26 27 26 25 25 25 25 24 23 24 25 24 24 26 26 24 23 24 23 21 21 20 18 18 17 17
9 10 10 11 11 11 12 12 14 16 16 18 18 17 16 15 14 13 13 14 12 7 3 4 5 6 8 11 14 19 23 23 23 23 24 27 26 25 27 27 26 25 26 26 25 24 24 25 25 25 25 26 25 24 25 25 24 23 23 21 19 19 18
12 11 11 12 11 12 12 12 13 14 15 16 16 16 16 16 16 15 14 15 14 12 9 8 8 7 5 6 10 14 18 20 22 25 24 24 28 27 26 26 27 27 26 27 27 25 24 24 26 26 25 26 26 25 25 26 26 25 24 24 21 20 20
12 12 13 12 12 12 12 11 12 15 16 16 15 15 15 15 17 17 16 15 14 12 10 11 12 10 5 3 4 8 11 12 16 23 30 27 24 28 28 26 26 27 27 27 27 26 25 23 24 26 26 26 26 26 24 25 27 27 26 26 24 22 21
11 12 12 12 12 11 12 12 14 15 17 17 17 16 15 14 15 16 17 17 16 16 13 11 13 12 7 4 5 6 8 10 13 19 25 30 28 24 25 26 25 25 26 27 26 25 26 25 23 24 27 27 27 27 26 25 25 27 28 28 27 26 24
11 11 11 11 11 11 11 13 14 15 15 16 17 19 18 17 15 16 17 16 16 19 19 15 13 13 10 7 6 7 7 8 10 13 15 18 25 27 24 22 22 23 24 26 26 24 24 26 25 24 24 26 27 26 25 25 25 27 29 30 29 29 27
10 10 10 10 11 11 11 12 13 14 14 15 16 17 18 18 17 16 17 16 16 17 17 15 14 13 12 10 8 7 7 8 8 11 13 13 15 19 22 22 20 19 19 22 26 25 23 24 26 25 24 23 25 26 26 26 26 27 29 31 32 31 29
8 8 8 9 10 10 11 11 12 13 13 14 15 15 16 16 16 15 16 15 14 15 14 13 14 15 14 13 13 11 10 10 10 11 14 15 13 15 19 20 20 21 20 19 23 26 25 24 23 25 26 24 23 23 26 27 27 28 29 31 33 33 32
8 6 8 9 9 10 11 11 12 13 13 13 14 14 15 15 14 14 14 14 13 14 14 13 15 16 17 16 15 16 15 15 14 13 14 15 15 17 20 20 21 22 22 18 17 18 23 25 23 22 25 27 26 24 23 25 27 29 31 32 33 34 35
7 7 7 7 8 9 11 12 13 13 13 13 14 14 14 15 14 13 13 13 14 14 15 15 16 16 16 16 17 18 20 18 16 16 16 16 17 17 17 17 18 19 18 16 17 15 13 16 21 23 23 25 28 27 25 24 24 27 31 34 35 35 36
6 6 7 7 8 10 11 12 13 12 12 12 13 14 14 13 13 12 12 12 13 13 14 15 15 15 15 15 16 17 19 20 19 18 18 19 19 18 16 16 16 16 15 15 16 17 17 16 17 22 24 25 26 27 28 28 27 27 29 32 35 36 36
5 6 8 8 9 10 12 12 12 11 11 11 12 14 13 12 12 11 12 12 13 13 13 14 15 16 15 15 15 16 17 18 19 20 19 19 19 18 15 14 14 13 14 15 17 19 21 20 19 21 23 26 27 28 28 29 30 30 30 30 32 35 38
5 7 8 9 9 11 12 13 12 11 11 11 12 14 13 11 11 11 11 12 12 12 12 13 14 15 16 16 16 16 16 17 17 18 19 18 18 15 12 13 16 16 16 15 15 19 25 28 27 24 22 23 25 27 28 28 29 30 32 33 33 34 37
5 6 7 8 10 12 13 12 12 12 12 12 13 14 13 11 11 11 11 11 11 11 11 11 12 14 14 15 16 16 17 17 17 17 17 17 17 16 14 15 17 17 18 19 20 21 23 24 26 26 23 22 23 25 27 28 27 28 30 32 33 33 35
5 6 8 9 11 12 11 11 12 12 13 13 13 13 13 13 13 12 12 11 10 10 11 11 11 12 13 13 14 14 15 16 16 17 16 15 14 16 17 17 17 17 18 21 23 24 23 21 22 25 26 26 24 24 26 29 29 28 28 30 32 33 34
6 7 8 9 10 10 9 10 11 12 13 14 14 14 14 14 14 13 12 11 11 10 11 11 11 12 12 13 13 13 12 13 14 14 14 12 12 14 16 17 17 17 18 21 23 24 24 22 22 24 24 24 22 21 19 16 13 13 15 18 22 28 33
7 7 8 8 8 9 10 10 11 12 13 14 15 15 15 14 14 13 12 12 12 12 12 12 11 12 12 12 12 13 12 12 12 12 12 12 13 14 16 17 17 17 18 19 20 21 21 21 22 22 21 21 20 17 11 10 14 13 13 15 17 21 27
7 7 8 8 9 10 11 10 10 12 13 14 14 15 15 15 15 13 13 12 13 14 13 12 12 13 13 12 12 13 13 12 12 12 12 12 14 15 17 17 18 18 17 16 17 17 16 17 17 15 15 16 17 16 15 14 14 16 19 22 23 23 26
7 7 7 8 10 11 11 11 11 12 13 13 13 14 14 14 15 15 14 14 14 15 14 13 14 14 13 12 12 13 14 13 13 13 11 11 13 16 16 17 19 20 17 15 15 15 14 14 13 12 11 12 15 19 21 22 22 21 20 20 21 22 24
6 7 8 8 9 11 11 12 12 13 13 13 14 14 14 14 14 15 16 16 15 16 16 16 16 15 13 13 13 13 14 15 15 13 10 11 13 14 15 16 17 18 18 16 15 14 14 15 14 14 12 12 15 19 22 23 24 24 22 20 18 19 21
6 7 8 8 9 10 11 12 12 13 14 14 14 15 15 14 15 15 16 17 17 16 17 18 18 17 15 13 13 14 14 15 15 13 12 12 12 12 13 15 15 16 16 16 16 16 15 14 15 15 15 14 14 16 19 21 22 23 23 23 20 19 19
6 7 7 8 9 10 10 11 12 13 14 15 15 15 16 16 16 16 17 18 17 17 17 18 18 18 16 14 13 14 14 14 15 15 14 13 11 10 12 13 13 14 14 15 17 19 18 16 14 14 14 14 14 15 16 16 17 18 20 19 17 16 17
5 6 7 8 9 10 10 12 13 14 15 16 16 16 16 17 17 18 18 19 18 17 17 17 18 18 17 16 14 13 13 13 14 14 13 12 12 12 11 11 12 13 14 15 16 17 17 18 18 18 17 15 15 14 13 12 12 13 15 14 12 12 15
5 6 8 9 10 11 12 12 13 15 16 16 17 17 17 18 18 19 19 19 19 18 18 17 18 19 18 17 14 13 13 13 12 12 12 13 14 13 11 10 11 13 14 16 16 16 18 20 21 21 20 19 18 16 13 12 10 9 10 11 12 14 15
6 7 8 9 11 12 13 13 13 15 16 17 18 18 19 19 20 20 20 20 19 19 19 18 18 19 18 17 14 12 12 12 11 11 13 14 14 14 14 14 13 12 13 16 17 16 17 18 19 20 21 21 21 20 18 17 15 12 12 14 17 19 21
6 7 8 10 11 12 13 14 14 15 16 17 18 19 20 21 22 22 22 22 21 20 20 19 19 18 18 17 16 13 12 13 13 13 13 13 14 15 16 15 14 13 13 14 15 16 16 15 16 17 19 19 19 19 19 20 20 20 19 20 21 22 23
6 7 8 10 10 12 13 14 15 16 17 18 19 20 22 23 23 23 24 23 23 22 21 21 20 20 20 20 19 16 15 14 14 13 13 13 15 16 16 16 16 15 14 13 14 16 17 15 13 14 15 16 16 16 17 17 16 17 17 18 19 21 24
Wind_Direction
103 106 103 154 226 342 274 259 213 190 184 179 186 184 180 182 175 170 174 178 180 181 182 183 183 183 185 186 187 186 186 186 186 186 185 184 185 183 183 187 187 185 183 181 183 179 177 177 173 175 178 173 174 175 173 175 168 164 173 173 166 169 181
97 113 119 135 151 235 253 254 214 193 197 188 189 191 188 183 175 171 173 178 183 183 183 185 186 186 187 187 187 188 187 187 187 188 188 188 189 188 186 187 190 192 190 185 184 182 179 176 174 177 177 175 179 178 176 180 174 171 184 186 180 181 189
87 121 139 173 208 220 231 228 200 200 209 200 193 196 196 186 179 176 174 176 182 185 185 186 187 188 189 188 189 190 189 189 189 189 191 191 191 191 190 190 191 192 194 191 184 182 181 177 177 180 176 177 184 181 178 182 179 178 190 191 188 191 194
62 134 161 182 210 233 233 208 197 203 206 206 205 208 209 196 184 177 175 178 182 186 188 188 189 189 189 190 190 192 192 191 191 191 192 193 192 192 192 191 191 190 193 193 189 187 183 179 180 180 179 181 184 183 183 188 185 185 196 194 189 197 199
37 87 136 158 175 202 252 197 208 236 204 149 219 233 234 229 212 193 182 182 185 188 190 190 191 190 190 192 192 193 195 194 194 194 195 195 192 193 194 193 191 191 192 192 194 195 186 180 183 184 184 184 185 186 186 191 191 190 199 198 191 202 205
30 43 81 93 74 37 13 8 210 242 39 74 89 236 239 266 263 232 195 185 186 191 193 192 194 193 191 194 195 195 196 197 198 198 198 199 195 194 196 196 194 192 191 190 193 197 189 183 186 187 187 187 188 191 188 191 195 194 198 200 198 209 211
36 31 47 55 46 30 15 9 62 147 87 84 107 165 195 216 252 247 223 208 193 189 195 197 197 196 195 195 198 198 197 198 201 201 201 202 199 198 197 197 197 194 192 192 192 194 192 191 192 190 191 191 191 194 193 192 195 197 200 201 202 210 215
37 31 35 43 43 36 29 27 44 79 90 99 129 155 184 200 193 189 219 233 209 187 195 204 204 202 199 198 200 201 200 200 202 202 203 205 203 202 201 199 199 197 195 194 194 194 193 194 195 194 193 195 195 196 197 198 197 198 202 204 205 208 212
43 38 36 38 41 40 41 43 45 56 65 61 68 91 70 20 113 164 210 227 211 192 198 211 216 208 200 201 207 206 202 202 204 203 204 206 207 205 203 202 200 199 198 197 196 196 196 195 196 196 195 196 197 198 199 200 199 200 205 207 208 210 211
52 51 46 40 43 46 47 47 44 46 49 46 44 51 43 28 22 17 332 238 204 193 195 212 227 218 204 208 222 224 214 205 204 205 205 207 208 208 206 203 201 200 200 200 199 197 198 198 196 197 197 197 199 200 200 200 200 201 207 210 211 212 215
61 58 56 51 46 45 44 42 41 42 43 43 45 49 49 42 32 10 338 321 317 290 231 225 237 228 216 213 221 238 240 225 212 206 207 210 209 209 209 206 202 201 200 201 202 199 198 199 199 198 199 199 200 201 201 202 202 203 206 210 212 214 216
70 63 58 54 47 42 41 39 42 41 38 40 44 45 48 46 37 23 8 5 355 310 271 260 257 236 222 222 228 234 236 238 232 216 208 211 212 209 209 209 205 201 200 203 204 201 198 198 199 200 200 200 201 203 204 204 204 205 206 208 212 214 215
74 69 63 56 49 46 43 40 46 49 44 39 35 33 38 37 29 26 27 30 31 22 340 300 301 281 247 245 254 241 224 228 243 241 222 213 215 214 209 208 209 204 200 202 205 205 202 198 199 201 201 201 202 204 206 205 205 206 208 207 210 214 215
85 76 69 62 56 53 48 41 43 50 57 54 43 34 32 27 25 27 27 29 33 39 44 39 20 355 316 280 268 253 233 228 244 262 259 232 217 217 213 208 209 208 204 200 202 208 209 203 199 199 201 203 204 205 207 208 207 208 209 209 210 213 216
82 77 72 63 57 56 55 50 43 41 45 52 52 46 38 29 26 23 18 21 24 25 33 41 38 33 19 346 303 271 262 254 249 264 279 274 244 225 218 213 210 209 207 202 200 206 212 212 205 199 199 203 205 205 208 209 209 210 211 211 210 212 215
72 70 69 65 58 56 55 53 48 44 41 41 42 42 40 40 40 28 18 18 15 10 11 20 31 37 44 33 354 321 290 278 256 249 272 291 288 262 236 223 215 210 209 206 204 205 208 213 215 206 199 200 204 207 208 211 213 212 213 213 212 213 214
74 63 61 64 61 56 55 52 47 45 44 42 41 39 31 29 37 34 25 22 19 15 12 12 20 28 36 38 8 344 331 312 279 245 247 279 292 289 277 257 235 221 213 208 209 210 208 210 216 218 209 201 201 206 210 213 216 215 215 216 216 214 213
62 53 51 58 59 54 53 51 44 41 42 42 44 47 38 28 27 25 19 21 27 27 22 15 16 23 30 31 9 334 327 330 307 270 257 260 261 268 278 279 266 249 232 213 208 211 213 210 212 219 223 215 207 206 211 216 219 219 219 218 219 218 216
62 50 46 49 54 55 51 46 41 35 36 38 39 45 47 41 36 26 14 13 23 31 31 24 21 22 24 24 13 351 335 333 327 301 284 277 260 250 257 263 264 263 257 235 214 209 212 215 215 217 222 227 225 216 212 215 220 222 223 222 222 222 220
74 62 52 44 46 53 49 44 41 31 28 33 35 39 46 45 41 32 18 9 11 21 28 28 25 21 17 15 11 3 358 356 350 337 315 297 286 278 270 260 254 258 264 259 243 223 212 213 218 220 222 227 233 234 227 221 220 221 222 224 225 225 224
73 65 62 50 44 52 47 38 35 28 22 25 30 33 39 42 38 31 22 13 8 13 21 23 23 20 14 9 4 359 357 357 352 346 338 325 308 296 287 280 277 284 292 294 295 296 271 235 224 224 226 226 230 237 241 236 230 226 223 222 224 226 227
59 48 54 50 45 54 51 35 26 21 16 19 30 32 29 35 38 30 24 19 11 11 16 17 16 15 12 7 1 356 353 353 351 348 345 339 329 317 305 298 303 316 316 293 282 290 296 287 260 238 232 230 229 233 238 238 238 237 233 227 225 225 226
53 40 41 37 37 46 46 30 16 13 8 12 31 31 18 23 36 31 25 20 11 10 13 13 9 6 4 3 357 353 352 351 350 347 346 346 341 332 316 298 293 298 291 269 251 243 243 249 255 248 240 237 232 232 235 236 236 238 239 236 230 226 224
42 38 31 21 23 29 28 18 8 5 3 8 25 21 5 14 31 27 23 19 10 10 13 10 6 360 356 355 351 349 350 348 346 346 346 350 348 339 319 292 278 269 263 256 249 245 239 235 234 237 243 247 243 238 239 241 240 239 239 239 236 231 227
27 28 20 17 24 17 6 2 -0 359 -0 7 15 5 354 10 26 19 16 13 3 6 11 7 3 358 352 349 345 345 346 345 345 347 349 349 343 332 321 306 290 272 258 251 247 252 258 253 242 238 244 252 252 246 244 244 245 245 243 242 240 237 232
35 24 14 16 22 11 355 355 358 356 356 1 2 354 352 8 15 6 4 2 354 358 3 358 355 352 348 345 342 341 344 344 344 344 345 343 332 322 320 315 303 286 271 263 258 258 263 261 251 247 247 246 247 248 246 245 246 248 249 248 245 242 237
44 30 20 15 16 9 359 1 -0 353 352 354 353 349 352 360 358 352 350 347 344 349 351 347 346 344 342 342 339 337 339 341 341 337 334 332 323 312 310 308 303 295 285 278 272 268 265 259 253 252 253 252 254 256 254 261 281 287 282 274 263 252 244
40 28 20 13 13 15 9 2 355 350 350 348 347 347 349 346 343 342 340 335 334 338 336 335 338 337 336 338 337 336 335 334 333 330 325 325 323 316 312 309 306 301 294 286 280 276 271 263 256 257 261 263 268 273 283 325 344 327 295 282 276 266 254
37 24 16 9 12 18 11 358 352 349 345 342 342 344 343 339 336 334 331 327 328 328 325 325 329 329 330 333 334 333 330 326 326 326 322 322 324 322 319 317 314 308 297 284 279 278 275 268 261 259 265 268 271 278 280 279 278 271 260 253 252 253 250
29 17 13 10 10 12 5 354 349 344 337 336 339 338 337 335 331 326 324 323 324 323 322 322 322 320 321 328 331 330 328 326 323 320 318 322 326 323 319 318 316 312 305 293 283 276 272 270 265 258 262 267 269 274 275 269 266 269 272 270 265 260 254
20 15 9 5 5 4 357 348 341 336 333 334 335 334 334 332 327 322 322 323 323 322 318 315 313 311 315 323 326 325 325 323 318 315 318 323 321 317 316 316 315 313 313 310 302 290 278 274 270 264 263 266 270 274 277 277 276 277 279 284 287 278 268
12 10 2 360 358 354 348 341 336 334 332 331 332 332 330 328 324 320 319 319 318 314 311 309 309 309 311 316 319 320 321 319 316 315 317 316 313 311 313 313 312 314 318 320 322 322 312 297 286 278 273 272 275 279 280 278 280 281 280 281 285 281 271
356 352 350 352 351 346 343 338 335 333 330 329 330 329 326 324 322 318 316 317 315 312 311 311 310 308 307 306 309 312 314 314 313 312 311 310 312 314 311 311 314 320 326 331 336 340 338 331 320 307 293 282 276 277 281 282 283 285 283 282 283 283 278
329 336 344 346 344 344 343 337 332 329 327 326 326 325 323 321 318 316 315 314 312 311 309 307 304 300 297 296 299 304 307 306 304 305 308 311 313 311 309 312 319 323 327 330 332 333 331 328 326 321 313 302 291 282 277 274 273 277 279 276 269 268 276
327 336 338 338 339 340 339 333 328 325 323 323 323 323 322 319 316 316 314 312 311 310 307 304 303 299 294 291 292 295 298 298 298 305 313 313 310 307 304 303 305 310 312 311 313 319 319 313 312 314 313 305 297 290 283 277 270 262 260 263 265 267 274
326 329 332 335 336 334 329 326 324 322 322 324 326 325 323 320 319 317 313 311 310 308 305 304 301 297 292 288 287 291 296 298 303 310 311 308 305 305 303 300 297 299 304 304 306 313 316 309 307 312 312 303 292 285 280 277 274 264 257 264 270 271 271
316 329 335 332 327 323 321 322 324 326 327 328 327 325 324 321 319 316 313 310 307 304 302 301 298 294 290 286 284 289 297 301 302 303 302 301 302 301 301 301 298 294 297 304 307 308 310 311 313 316 315 309 302 296 288 280 277 275 275 276 274 270 267
329 332 327 320 316 317 320 325 328 328 327 327 327 325 322 319 316 314 310 306 302 299 296 293 291 290 289 287 284 283 286 290 293 295 299 302 302 300 299 300 299 297 299 303 303 305 309 315 321 323 319 313 312 313 310 303 295 289 285 281 273 268 266